Andrews, TX

5:31 AM CST on December 11, 2019 (GMT -0600)
Andrews

Weather History for KE11 - October, 2019

Change the Weather History Date:

Monday, October 7, 2019

  Actual Average (KMAF) Record (KMAF)
Temperature  
Mean Temperature 60 °F -  
Max Temperature 72 °F 78 °F 99 °F (1979)
Min Temperature 49 °F 54 °F 38 °F (1976)
Degree Days  
Heating Degree Days 4    
Growing Degree Days 10 (Base 50)    
Moisture  
Dew Point 37 °F    
Average Humidity 43    
Maximum Humidity 69    
Minimum Humidity 25    
Precipitation  
Precipitation 0.00 in - - ()
Sea Level Pressure  
Sea Level Pressure 30.30 in    
Wind  
Wind Speed 9 mph ()    
Max Wind Speed 17 mph    
Max Gust Speed 26 mph    
Visibility 10.0 miles    
Events      
Averages and records for this station are not official NWS values.
T = Trace of Precipitation, MM = Missing Value Source: Averaged Metar Reports

Daily Weather History Graph

Daily Weather History Graph

Search for Another Location

Airport or City:

Astronomy

Oct. 07, 2019 Rise Set
Actual Time 7:48 AM CDT 7:27 PM CDT
Civil Twilight 7:23 AM CDT 7:51 PM CDT
Nautical Twilight 6:55 AM CDT 8:20 PM CDT
Astronomical Twilight 6:26 AM CDT 8:48 PM CDT
Moon 4:27 PM CDT (10/7) 2:07 AM CDT (10/7)
Length of Visible Light 12h 28m
Length of Day
11h 39m
Waxing Gibbous, 69% of the Moon is Illuminated
Oct 7
Waxing Gibbous
Oct 13
Full
Oct 21
Last Quarter
Oct 27
New
Nov 4
First Quarter

Hourly Weather History & Observations

Time (CDT) Temp. Dew Point Humidity Pressure Visibility Wind Dir Wind Speed Gust Speed Precip Events Conditions
12:15 AM 59.2 °F 42.6 °F 54% 30.29 in 10.0 mi NE 17.3 mph 26.5 mph N/A   Clear
12:35 AM 59.2 °F 39.2 °F 48% 30.28 in 10.0 mi NE 17.3 mph 24.2 mph N/A   Clear
12:55 AM 58.6 °F 38.3 °F 47% 30.29 in 10.0 mi NE 16.1 mph 25.3 mph N/A   Clear
1:15 AM 57.9 °F 37.8 °F 47% 30.30 in 10.0 mi NE 12.7 mph 21.9 mph N/A   Clear
1:35 AM 57.4 °F 37.6 °F 48% 30.30 in 10.0 mi NE 15.0 mph 21.9 mph N/A   Clear
1:55 AM 56.7 °F 37.9 °F 50% 30.30 in 10.0 mi NE 12.7 mph 18.4 mph N/A   Clear
2:15 AM 56.3 °F 37.9 °F 50% 30.30 in 10.0 mi NE 15.0 mph 20.7 mph N/A   Clear
2:35 AM 55.8 °F 37.9 °F 51% 30.30 in 10.0 mi NE 15.0 mph 21.9 mph N/A   Clear
2:55 AM 55.2 °F 38.3 °F 53% 30.31 in 10.0 mi NE 11.5 mph 17.3 mph N/A   Clear
3:15 AM 54.5 °F 38.3 °F 54% 30.32 in 10.0 mi NE 9.2 mph 16.1 mph N/A   Clear
3:35 AM 54.1 °F 38.7 °F 56% 30.33 in 10.0 mi NE 6.9 mph - N/A   Mostly Cloudy
3:55 AM 55.0 °F 38.5 °F 54% 30.34 in 10.0 mi NE 8.1 mph - N/A   Overcast
4:15 AM 54.7 °F 38.3 °F 54% 30.33 in 10.0 mi NE 11.5 mph - N/A   Mostly Cloudy
4:35 AM 54.9 °F 38.3 °F 54% 30.33 in 10.0 mi NE 12.7 mph 16.1 mph N/A   Overcast
4:55 AM 54.5 °F 38.7 °F 55% 30.32 in 10.0 mi NE 17.3 mph 20.7 mph N/A   Overcast
5:15 AM 54.0 °F 38.5 °F 56% 30.33 in 10.0 mi NE 13.8 mph 20.7 mph N/A   Overcast
5:35 AM 53.6 °F 39.2 °F 58% 30.34 in 10.0 mi NE 6.9 mph - N/A   Overcast
5:55 AM 53.6 °F 39.0 °F 58% 30.35 in 10.0 mi NNE 9.2 mph - N/A   Overcast
6:15 AM 52.9 °F 38.5 °F 58% 30.35 in 10.0 mi NNE 9.2 mph - N/A   Scattered Clouds
6:35 AM 53.6 °F 38.5 °F 57% 30.36 in 10.0 mi NNE 5.8 mph - N/A   Mostly Cloudy
6:55 AM 52.7 °F 39.2 °F 60% 30.37 in 10.0 mi North 6.9 mph - N/A   Mostly Cloudy
7:15 AM 51.1 °F 40.1 °F 66% 30.37 in 10.0 mi North 5.8 mph - N/A   Mostly Cloudy
7:35 AM 50.4 °F 40.1 °F 68% 30.38 in 10.0 mi NNW 5.8 mph - N/A   Scattered Clouds
7:55 AM 49.8 °F 39.4 °F 67% 30.38 in 10.0 mi North 5.8 mph - N/A   Scattered Clouds
8:15 AM 49.5 °F 39.6 °F 69% 30.38 in 10.0 mi NNW 4.6 mph - N/A   Scattered Clouds
8:35 AM 51.3 °F 39.4 °F 64% 30.39 in 10.0 mi North 5.8 mph - N/A   Scattered Clouds
8:55 AM 54.5 °F 37.0 °F 52% 30.39 in 10.0 mi NNE 8.1 mph - N/A   Mostly Cloudy
9:15 AM 54.9 °F 35.6 °F 48% 30.39 in 10.0 mi NE 11.5 mph - N/A   Overcast
9:55 AM 57.0 °F 34.9 °F 43% 30.40 in 10.0 mi ENE 11.5 mph - N/A   Clear
10:15 AM 56.8 °F 34.9 °F 44% 30.40 in 10.0 mi ENE 15.0 mph 18.4 mph N/A   Clear
10:35 AM 57.4 °F 34.5 °F 42% 30.41 in 10.0 mi ENE 13.8 mph - N/A   Scattered Clouds
10:55 AM 58.3 °F 34.0 °F 40% 30.41 in 10.0 mi ENE 11.5 mph 18.4 mph N/A   Scattered Clouds
11:15 AM 61.5 °F 34.5 °F 36% 30.40 in 10.0 mi ENE 9.2 mph - N/A   Scattered Clouds
11:35 AM 62.6 °F 34.2 °F 35% 30.39 in 10.0 mi ENE 13.8 mph 19.6 mph N/A   Clear
11:55 AM 63.5 °F 34.0 °F 33% 30.38 in 10.0 mi ENE 9.2 mph 16.1 mph N/A   Clear
12:10 PM 64.6 °F 33.3 °F 31% 30.38 in 10.0 mi NE 12.7 mph 17.3 mph N/A   Clear
12:35 PM 65.5 °F 34.0 °F 31% 30.37 in 10.0 mi East 8.1 mph - N/A   Clear
12:55 PM 65.7 °F 33.6 °F 30% 30.37 in 10.0 mi NE 12.7 mph 16.1 mph N/A   Clear
1:15 PM 66.6 °F 33.8 °F 30% 30.35 in 10.0 mi NNE 11.5 mph 16.1 mph N/A   Clear
1:35 PM 66.9 °F 34.0 °F 30% 30.34 in 10.0 mi NE 10.4 mph 16.1 mph N/A   Clear
1:55 PM 68.4 °F 34.7 °F 29% 30.32 in 10.0 mi ENE 9.2 mph - N/A   Clear
2:15 PM 68.4 °F 34.0 °F 28% 30.31 in 10.0 mi ENE 9.2 mph 16.1 mph N/A   Clear
2:35 PM 69.3 °F 34.5 °F 28% 30.30 in 10.0 mi ENE 3.5 mph - N/A   Clear
2:55 PM 69.8 °F 33.8 °F 27% 30.29 in 10.0 mi ENE 3.5 mph - N/A   Clear
3:15 PM 70.3 °F 34.0 °F 26% 30.28 in 10.0 mi NNE 4.6 mph - N/A   Clear
3:35 PM 71.4 °F 34.7 °F 26% 30.27 in 10.0 mi NE 6.9 mph - N/A   Clear
3:55 PM 71.1 °F 33.3 °F 25% 30.26 in 10.0 mi Calm Calm - N/A   Clear
4:15 PM 72.5 °F 34.7 °F 25% 30.25 in 10.0 mi East 6.9 mph - N/A   Clear
4:35 PM 71.6 °F 34.9 °F 26% 30.25 in 10.0 mi NNE 3.5 mph - N/A   Clear
4:55 PM 72.3 °F 34.5 °F 25% 30.25 in 10.0 mi Calm Calm - N/A   Clear
5:15 PM 72.5 °F 35.2 °F 26% 30.24 in 10.0 mi East 8.1 mph - N/A   Clear
5:35 PM 71.8 °F 34.2 °F 25% 30.23 in 10.0 mi ESE 6.9 mph - N/A   Clear
5:55 PM 71.6 °F 34.5 °F 26% 30.22 in 10.0 mi East 3.5 mph - N/A   Clear
6:15 PM 70.9 °F 35.1 °F 27% 30.22 in 10.0 mi East 5.8 mph - N/A   Clear
6:35 PM 70.0 °F 35.4 °F 28% 30.22 in 10.0 mi ESE 8.1 mph - N/A   Clear
6:55 PM 68.7 °F 35.8 °F 30% 30.22 in 10.0 mi SE 4.6 mph - N/A   Clear
7:15 PM 66.4 °F 36.7 °F 33% 30.21 in 10.0 mi SE 4.6 mph - N/A   Clear
7:35 PM 63.7 °F 37.6 °F 38% 30.22 in 10.0 mi ESE 4.6 mph - N/A   Clear
7:55 PM 62.6 °F 37.6 °F 40% 30.22 in 10.0 mi Calm Calm - N/A   Clear
8:15 PM 62.6 °F 37.2 °F 39% 30.22 in 10.0 mi ESE 3.5 mph - N/A   Clear
8:35 PM 61.0 °F 37.6 °F 42% 30.22 in 10.0 mi ESE 3.5 mph - N/A   Clear
8:55 PM 60.3 °F 37.9 °F 44% 30.22 in 10.0 mi ESE 3.5 mph - N/A   Clear
9:15 PM 59.9 °F 37.6 °F 44% 30.22 in 10.0 mi ESE 4.6 mph - N/A   Clear
9:35 PM 59.2 °F 37.4 °F 44% 30.22 in 10.0 mi ESE 3.5 mph - N/A   Clear
9:55 PM 58.5 °F 37.4 °F 45% 30.22 in 10.0 mi ESE 3.5 mph - N/A   Clear
10:15 PM 57.7 °F 37.8 °F 47% 30.22 in 10.0 mi ESE 3.5 mph - N/A   Clear
10:35 PM 56.3 °F 38.5 °F 51% 30.23 in 10.0 mi ESE 3.5 mph - N/A   Clear
10:55 PM 56.3 °F 37.8 °F 50% 30.22 in 10.0 mi ESE 5.8 mph - N/A   Clear
11:15 PM 55.8 °F 37.4 °F 50% 30.22 in 10.0 mi SE 5.8 mph - N/A   Clear
11:35 PM 55.6 °F 37.4 °F 50% 30.22 in 10.0 mi SE 5.8 mph - N/A   Clear
11:55 PM 54.9 °F 36.9 °F 51% 30.22 in 10.0 mi SE 5.8 mph - N/A   Clear